Year,Month,Day,Hour,Minute,Value (Times are PST for temperature in C)
2009,11,30,00,00,11.60
2009,11,30,00,05,11.60
2009,11,30,00,06,11.50
2009,11,30,00,07,11.50
2009,11,30,00,08,11.50
2009,11,30,00,09,11.50
2009,11,30,00,10,11.40
2009,11,30,00,11,11.40
2009,11,30,00,12,11.40
2009,11,30,00,13,11.40
2009,11,30,00,14,11.40
2009,11,30,00,15,11.50
2009,11,30,00,16,11.50
2009,11,30,00,17,11.50
2009,11,30,00,18,11.50
2009,11,30,00,19,11.50
2009,11,30,00,20,11.50
2009,11,30,00,21,11.60
2009,11,30,00,22,11.70
2009,11,30,00,23,11.70
2009,11,30,00,24,11.70
2009,11,30,00,25,11.70
2009,11,30,00,26,11.70
2009,11,30,00,27,11.70
2009,11,30,00,28,11.80
2009,11,30,00,29,11.80
2009,11,30,00,30,11.80
2009,11,30,00,31,11.80
2009,11,30,00,32,11.80
2009,11,30,00,33,11.80
2009,11,30,00,34,11.70
2009,11,30,00,35,11.70
2009,11,30,00,36,11.70
2009,11,30,00,37,11.70
2009,11,30,00,38,11.70
2009,11,30,00,39,11.70
2009,11,30,00,40,11.70
2009,11,30,00,41,11.70
2009,11,30,00,42,11.70
2009,11,30,00,43,11.70
2009,11,30,00,44,11.70
2009,11,30,00,45,11.80
2009,11,30,00,46,11.80
2009,11,30,00,47,11.80
2009,11,30,00,48,11.80
2009,11,30,00,49,11.80
2009,11,30,00,50,11.80
2009,11,30,00,51,11.80
2009,11,30,00,52,11.80
2009,11,30,00,53,11.80
2009,11,30,00,54,11.80
2009,11,30,00,55,11.80
2009,11,30,00,56,11.80
2009,11,30,00,57,11.80
2009,11,30,00,58,11.80
2009,11,30,00,59,11.90
2009,11,30,01,00,11.90
2009,11,30,01,01,12.00
2009,11,30,01,02,12.00
2009,11,30,01,03,12.10
2009,11,30,01,04,12.10
2009,11,30,01,05,12.00
2009,11,30,01,06,12.00
2009,11,30,01,07,12.00
2009,11,30,01,08,12.00
2009,11,30,01,09,11.90
2009,11,30,01,10,11.90
2009,11,30,01,11,11.90
2009,11,30,01,12,11.90
2009,11,30,01,13,11.90
2009,11,30,01,14,11.80
2009,11,30,01,15,11.80
2009,11,30,01,16,11.80
2009,11,30,01,17,11.80
2009,11,30,01,18,11.80
2009,11,30,01,19,11.80
2009,11,30,01,20,11.80
2009,11,30,01,21,11.80
2009,11,30,01,22,11.80
2009,11,30,01,23,11.80
2009,11,30,01,24,11.70
2009,11,30,01,25,11.70
2009,11,30,01,26,11.70
2009,11,30,01,27,11.70
2009,11,30,01,28,11.70
2009,11,30,01,29,11.70
2009,11,30,01,30,11.70
2009,11,30,01,31,11.70
2009,11,30,01,32,11.70
2009,11,30,01,33,11.60
2009,11,30,01,34,11.60
2009,11,30,01,35,11.70
2009,11,30,01,36,11.70
2009,11,30,01,37,11.70
2009,11,30,01,38,11.70
2009,11,30,01,39,11.70
2009,11,30,01,40,11.70
2009,11,30,01,41,11.70
2009,11,30,01,42,11.70
2009,11,30,01,43,11.80
2009,11,30,01,44,11.80
2009,11,30,01,45,11.80
2009,11,30,01,46,11.80
2009,11,30,01,47,11.80
2009,11,30,01,48,11.90
2009,11,30,01,49,11.90
2009,11,30,01,50,11.90
2009,11,30,01,51,11.90
2009,11,30,01,52,11.90
2009,11,30,01,53,11.90
2009,11,30,01,54,11.90
2009,11,30,01,55,12.00
2009,11,30,01,56,12.00
2009,11,30,01,57,12.00
2009,11,30,01,58,12.00
2009,11,30,01,59,11.90
2009,11,30,02,00,11.90
2009,11,30,02,01,11.90
2009,11,30,02,02,11.90
2009,11,30,02,03,11.90
2009,11,30,02,04,11.90
2009,11,30,02,05,11.90
2009,11,30,02,06,11.90
2009,11,30,02,07,11.90
2009,11,30,02,08,11.90
2009,11,30,02,09,11.90
2009,11,30,02,10,12.00
2009,11,30,02,11,12.00
2009,11,30,02,12,12.00
2009,11,30,02,13,12.10
2009,11,30,02,14,12.10
2009,11,30,02,15,12.10
2009,11,30,02,16,12.10
2009,11,30,02,17,12.00
2009,11,30,02,18,12.00
2009,11,30,02,19,11.90
2009,11,30,02,20,11.80
2009,11,30,02,21,11.80
2009,11,30,02,22,11.70
2009,11,30,02,23,11.70
2009,11,30,02,24,11.70
2009,11,30,02,25,11.60
2009,11,30,02,26,11.60
2009,11,30,02,27,11.60
2009,11,30,02,28,11.50
2009,11,30,02,29,11.50
2009,11,30,02,30,11.50
2009,11,30,02,31,11.50
2009,11,30,02,32,11.50
2009,11,30,02,33,11.50
2009,11,30,02,34,11.50
2009,11,30,02,35,11.50
2009,11,30,02,36,11.50
2009,11,30,02,37,11.60
2009,11,30,02,38,11.60
2009,11,30,02,39,11.60
2009,11,30,02,40,11.60
2009,11,30,02,41,11.60
2009,11,30,02,42,11.60
2009,11,30,02,43,11.60
2009,11,30,02,44,11.60
2009,11,30,02,45,11.50
2009,11,30,02,46,11.50
2009,11,30,02,47,11.40
2009,11,30,02,48,11.40
2009,11,30,02,49,11.40
2009,11,30,02,50,11.40
2009,11,30,02,51,11.40
2009,11,30,02,52,11.40
2009,11,30,02,53,11.30
2009,11,30,02,54,11.30
2009,11,30,02,55,11.30
2009,11,30,02,56,11.30
2009,11,30,02,57,11.20
2009,11,30,02,58,11.20
2009,11,30,02,59,11.20
2009,11,30,03,00,11.10
2009,11,30,03,01,11.10
2009,11,30,03,02,11.10
2009,11,30,03,03,11.10
2009,11,30,03,04,11.00
2009,11,30,03,05,11.00
2009,11,30,03,06,11.00
2009,11,30,03,07,11.00
2009,11,30,03,08,11.10
2009,11,30,03,09,11.10
2009,11,30,03,10,11.10
2009,11,30,03,11,11.20
2009,11,30,03,12,11.20
2009,11,30,03,13,11.20
2009,11,30,03,14,11.20
2009,11,30,03,15,11.20
2009,11,30,03,16,11.10
2009,11,30,03,17,11.20
2009,11,30,03,18,11.20
2009,11,30,03,19,11.10
2009,11,30,03,20,11.10
2009,11,30,03,21,11.10
2009,11,30,03,22,11.20
2009,11,30,03,23,11.20
2009,11,30,03,24,11.20
2009,11,30,03,25,11.20
2009,11,30,03,26,11.20
2009,11,30,03,27,11.20
2009,11,30,03,28,11.20
2009,11,30,03,29,11.20
2009,11,30,03,30,11.20
2009,11,30,03,31,11.20
2009,11,30,03,32,11.10
2009,11,30,03,33,11.10
2009,11,30,03,34,11.10
2009,11,30,03,35,11.10
2009,11,30,03,36,11.10
2009,11,30,03,37,11.10
2009,11,30,03,38,11.20
2009,11,30,03,39,11.20
2009,11,30,03,40,11.20
2009,11,30,03,41,11.20
2009,11,30,03,42,11.20
2009,11,30,03,43,11.10
2009,11,30,03,44,11.10
2009,11,30,03,45,11.10
2009,11,30,03,46,11.10
2009,11,30,03,47,11.10
2009,11,30,03,48,11.20
2009,11,30,03,49,11.20
2009,11,30,03,50,11.20
2009,11,30,03,51,11.20
2009,11,30,03,52,11.20
2009,11,30,03,53,11.20
2009,11,30,03,54,11.20
2009,11,30,03,55,11.20
2009,11,30,03,56,11.20
2009,11,30,03,57,11.30
2009,11,30,03,58,11.30
2009,11,30,03,59,11.30
2009,11,30,04,00,11.30
2009,11,30,04,01,11.30
2009,11,30,04,02,11.30
2009,11,30,04,03,11.30
2009,11,30,04,04,11.30
2009,11,30,04,05,11.30
2009,11,30,04,06,11.30
2009,11,30,04,07,11.30
2009,11,30,04,08,11.40
2009,11,30,04,09,11.40
2009,11,30,04,10,11.40
2009,11,30,04,11,11.40
2009,11,30,04,12,11.40
2009,11,30,04,13,11.40
2009,11,30,04,14,11.40
2009,11,30,04,15,11.30
2009,11,30,04,16,11.30
2009,11,30,04,17,11.30
2009,11,30,04,18,11.30
2009,11,30,04,19,11.30
2009,11,30,04,20,11.30
2009,11,30,04,21,11.30
2009,11,30,04,22,11.30
2009,11,30,04,23,11.40
2009,11,30,04,24,11.40
2009,11,30,04,25,11.40
2009,11,30,04,26,11.40
2009,11,30,04,27,11.40
2009,11,30,04,28,11.40
2009,11,30,04,29,11.40
2009,11,30,04,30,11.40
2009,11,30,04,31,11.40
2009,11,30,04,32,11.50
2009,11,30,04,33,11.50
2009,11,30,04,34,11.50
2009,11,30,04,35,11.50
2009,11,30,04,36,11.50
2009,11,30,04,37,11.50
2009,11,30,04,38,11.60
2009,11,30,04,39,11.60
2009,11,30,04,40,11.60
2009,11,30,04,41,11.60
2009,11,30,04,42,11.60
2009,11,30,04,43,11.60
2009,11,30,04,44,11.60
2009,11,30,04,45,11.60
2009,11,30,04,46,11.60
2009,11,30,04,47,11.60
2009,11,30,04,48,11.60
2009,11,30,04,49,11.60
2009,11,30,04,50,11.60
2009,11,30,04,51,11.60
2009,11,30,04,52,11.60
2009,11,30,04,53,11.60
2009,11,30,04,54,11.60
2009,11,30,04,55,11.60
2009,11,30,04,56,11.60
2009,11,30,04,57,11.70
2009,11,30,04,58,11.70
2009,11,30,04,59,11.80
2009,11,30,05,00,11.80
2009,11,30,05,01,11.80
2009,11,30,05,02,11.80
2009,11,30,05,03,11.80
2009,11,30,05,04,11.80
2009,11,30,05,05,11.80
2009,11,30,05,06,11.80
2009,11,30,05,07,11.80
2009,11,30,05,08,11.80
2009,11,30,05,09,11.80
2009,11,30,05,10,11.70
2009,11,30,05,11,11.80
2009,11,30,05,12,11.80
2009,11,30,05,13,11.80
2009,11,30,05,14,11.80
2009,11,30,05,15,11.80
2009,11,30,05,16,11.80
2009,11,30,05,17,11.80
2009,11,30,05,18,11.80
2009,11,30,05,19,11.70
2009,11,30,05,20,11.70
2009,11,30,05,21,11.70
2009,11,30,05,22,11.70
2009,11,30,05,23,11.70
2009,11,30,05,24,11.70
2009,11,30,05,25,11.70
2009,11,30,05,26,11.70
2009,11,30,05,27,11.70
2009,11,30,05,28,11.80
2009,11,30,05,29,11.80
2009,11,30,05,30,11.80
2009,11,30,05,31,11.80
2009,11,30,05,32,11.80
2009,11,30,05,33,11.80
2009,11,30,05,34,11.80
2009,11,30,05,35,11.80
2009,11,30,05,36,11.80
2009,11,30,05,37,11.70
2009,11,30,05,38,11.70
2009,11,30,05,39,11.70
2009,11,30,05,40,11.70
2009,11,30,05,41,11.80
2009,11,30,05,42,11.80
2009,11,30,05,43,11.80
2009,11,30,05,44,11.80
2009,11,30,05,45,11.80
2009,11,30,05,46,11.80
2009,11,30,05,47,11.80
2009,11,30,05,48,11.80
2009,11,30,05,49,11.70
2009,11,30,05,50,11.70
2009,11,30,05,51,11.80
2009,11,30,05,52,11.80
2009,11,30,05,53,11.80
2009,11,30,05,54,11.90
2009,11,30,05,55,11.90
2009,11,30,05,56,11.90
2009,11,30,05,57,11.90
2009,11,30,05,58,11.90
2009,11,30,05,59,11.80
2009,11,30,06,00,11.80
2009,11,30,06,01,11.80
2009,11,30,06,02,11.80
2009,11,30,06,03,11.80
2009,11,30,06,04,11.70
2009,11,30,06,05,11.70
2009,11,30,06,06,11.80
2009,11,30,06,07,11.80
2009,11,30,06,08,11.80
2009,11,30,06,09,11.90
2009,11,30,06,10,11.90
2009,11,30,06,11,11.90
2009,11,30,06,12,11.80
2009,11,30,06,13,11.80
2009,11,30,06,14,11.80
2009,11,30,06,15,11.70
2009,11,30,06,16,11.70
2009,11,30,06,17,11.70
2009,11,30,06,18,11.70
2009,11,30,06,19,11.70
2009,11,30,06,20,11.70
2009,11,30,06,21,11.70
2009,11,30,06,22,11.60
2009,11,30,06,23,11.60
2009,11,30,06,24,11.60
2009,11,30,06,25,11.60
2009,11,30,06,26,11.60
2009,11,30,06,27,11.60
2009,11,30,06,28,11.50
2009,11,30,06,29,11.50
2009,11,30,06,30,11.50
2009,11,30,06,31,11.40
2009,11,30,06,32,11.40
2009,11,30,06,33,11.40
2009,11,30,06,34,11.40
2009,11,30,06,35,11.30
2009,11,30,06,36,11.30
2009,11,30,06,37,11.20
2009,11,30,06,38,11.20
2009,11,30,06,39,11.00
2009,11,30,06,40,10.70
2009,11,30,06,41,10.30
2009,11,30,06,42,10.00
2009,11,30,06,43,9.60
2009,11,30,06,44,9.20
2009,11,30,06,45,8.80
2009,11,30,06,46,8.40
2009,11,30,06,47,8.20
2009,11,30,06,48,7.90
2009,11,30,06,49,7.70
2009,11,30,06,50,7.50
2009,11,30,06,51,7.40
2009,11,30,06,52,7.30
2009,11,30,06,53,7.20
2009,11,30,06,54,7.00
2009,11,30,06,55,6.90
2009,11,30,06,56,6.80
2009,11,30,06,57,6.70
2009,11,30,06,58,6.70
2009,11,30,06,59,6.60
2009,11,30,07,00,6.60
2009,11,30,07,01,6.60
2009,11,30,07,02,6.50
2009,11,30,07,03,6.50
2009,11,30,07,04,6.40
2009,11,30,07,05,6.40
2009,11,30,07,06,6.40
2009,11,30,07,07,6.40
2009,11,30,07,08,6.40
2009,11,30,07,09,6.40
2009,11,30,07,10,6.40
2009,11,30,07,11,6.40
2009,11,30,07,12,6.40
2009,11,30,07,13,6.40
2009,11,30,07,14,6.40
2009,11,30,07,15,6.40
2009,11,30,07,16,6.40
2009,11,30,07,17,6.30
2009,11,30,07,18,6.30
2009,11,30,07,19,6.30
2009,11,30,07,20,6.30
2009,11,30,07,21,6.30
2009,11,30,07,22,6.30
2009,11,30,07,23,6.30
2009,11,30,07,24,6.30
2009,11,30,07,25,6.30
2009,11,30,07,26,6.20
2009,11,30,07,27,6.20
2009,11,30,07,28,6.20
2009,11,30,07,29,6.20
2009,11,30,07,30,6.20
2009,11,30,07,31,6.10
2009,11,30,07,32,6.10
2009,11,30,07,33,6.10
2009,11,30,07,34,6.10
2009,11,30,07,35,6.10
2009,11,30,07,36,6.00
2009,11,30,07,37,6.00
2009,11,30,07,38,6.00
2009,11,30,07,39,5.90
2009,11,30,07,40,5.90
2009,11,30,07,41,5.90
2009,11,30,07,42,5.90
2009,11,30,07,43,5.90
2009,11,30,07,44,5.90
2009,11,30,07,45,5.80
2009,11,30,07,46,5.80
2009,11,30,07,47,5.80
2009,11,30,07,48,5.80
2009,11,30,07,49,5.80
2009,11,30,07,50,5.80
2009,11,30,07,51,5.80
2009,11,30,07,52,5.80
2009,11,30,07,53,5.80
2009,11,30,07,54,5.80
2009,11,30,07,55,5.70
2009,11,30,07,56,5.70
2009,11,30,07,57,5.70
2009,11,30,07,58,5.70
2009,11,30,07,59,5.70
2009,11,30,08,00,5.60
2009,11,30,08,01,5.60
2009,11,30,08,02,5.60
2009,11,30,08,03,5.60
2009,11,30,08,04,5.60
2009,11,30,08,05,5.50
2009,11,30,08,06,5.50
2009,11,30,08,07,5.50
2009,11,30,08,08,5.40
2009,11,30,08,09,5.40
2009,11,30,08,10,5.40
2009,11,30,08,11,5.40
2009,11,30,08,12,5.30
2009,11,30,08,13,5.30
2009,11,30,08,14,5.30
2009,11,30,08,15,5.30
2009,11,30,08,16,5.30
2009,11,30,08,17,5.30
2009,11,30,08,18,5.30
2009,11,30,08,19,5.30
2009,11,30,08,20,5.30
2009,11,30,08,21,5.30
2009,11,30,08,22,5.30
2009,11,30,08,23,5.30
2009,11,30,08,24,5.30
2009,11,30,08,25,5.30
2009,11,30,08,26,5.30
2009,11,30,08,27,5.30
2009,11,30,08,28,5.30
2009,11,30,08,29,5.30
2009,11,30,08,30,5.30
2009,11,30,08,31,5.30
2009,11,30,08,32,5.30
2009,11,30,08,33,5.30
2009,11,30,08,34,5.40
2009,11,30,08,35,5.40
2009,11,30,08,36,5.40
2009,11,30,08,37,5.40
2009,11,30,08,38,5.40
2009,11,30,08,39,5.40
2009,11,30,08,40,5.40
2009,11,30,08,41,5.40
2009,11,30,08,42,5.40
2009,11,30,08,43,5.40
2009,11,30,08,44,5.40
2009,11,30,08,45,5.40
2009,11,30,08,46,5.40
2009,11,30,08,47,5.40
2009,11,30,08,48,5.40
2009,11,30,08,49,5.40
2009,11,30,08,50,5.50
2009,11,30,08,51,5.50
2009,11,30,08,52,5.50
2009,11,30,08,53,5.50
2009,11,30,08,54,5.50
2009,11,30,08,55,5.50
2009,11,30,08,56,5.60
2009,11,30,08,57,5.60
2009,11,30,08,58,5.60
2009,11,30,08,59,5.60
2009,11,30,09,00,5.60
2009,11,30,09,01,5.60
2009,11,30,09,02,5.60
2009,11,30,09,03,5.60
2009,11,30,09,04,5.60
2009,11,30,09,05,5.60
2009,11,30,09,06,5.60
2009,11,30,09,07,5.60
2009,11,30,09,08,5.60
2009,11,30,09,09,5.60
2009,11,30,09,10,5.70
2009,11,30,09,11,5.70
2009,11,30,09,12,5.70
2009,11,30,09,13,5.70
2009,11,30,09,14,5.70
2009,11,30,09,15,5.70
2009,11,30,09,16,5.70
2009,11,30,09,17,5.70
2009,11,30,09,18,5.70
2009,11,30,09,19,5.70
2009,11,30,09,20,5.70
2009,11,30,09,21,5.70
2009,11,30,09,22,5.70
2009,11,30,09,23,5.70
2009,11,30,09,24,5.70
2009,11,30,09,25,5.70
2009,11,30,09,26,5.70
2009,11,30,09,27,5.70
2009,11,30,09,28,5.70
2009,11,30,09,29,5.70
2009,11,30,09,30,5.70
2009,11,30,09,31,5.70
2009,11,30,09,32,5.70
2009,11,30,09,33,5.70
2009,11,30,09,34,5.70
2009,11,30,09,35,5.70
2009,11,30,09,36,5.70
2009,11,30,09,37,5.70
2009,11,30,09,38,5.70
2009,11,30,09,39,5.70
2009,11,30,09,40,5.70
2009,11,30,09,41,5.70
2009,11,30,09,42,5.70
2009,11,30,09,43,5.70
2009,11,30,09,44,5.70
2009,11,30,09,45,5.70
2009,11,30,09,46,5.70
2009,11,30,09,47,5.70
2009,11,30,09,48,5.70
2009,11,30,09,49,5.70
2009,11,30,09,50,5.70
2009,11,30,09,51,5.70
2009,11,30,09,52,5.70
2009,11,30,09,53,5.70
2009,11,30,09,54,5.70
2009,11,30,09,55,5.70
2009,11,30,09,56,5.70
2009,11,30,09,57,5.70
2009,11,30,09,58,5.70
2009,11,30,09,59,5.70
2009,11,30,10,00,5.70
2009,11,30,10,01,5.70
2009,11,30,10,02,5.70
2009,11,30,10,03,5.70
2009,11,30,10,04,5.70
2009,11,30,10,05,5.70
2009,11,30,10,06,5.70
2009,11,30,10,07,5.70
2009,11,30,10,08,5.70
2009,11,30,10,09,5.70
2009,11,30,10,10,5.70
2009,11,30,10,11,5.70
2009,11,30,10,12,5.70
2009,11,30,10,13,5.70
2009,11,30,10,14,5.70
2009,11,30,10,15,5.70
2009,11,30,10,16,5.70
2009,11,30,10,17,5.70
2009,11,30,10,18,5.70
2009,11,30,10,19,5.70
2009,11,30,10,20,5.70
2009,11,30,10,21,5.70
2009,11,30,10,22,5.70
2009,11,30,10,23,5.70
2009,11,30,10,24,5.70
2009,11,30,10,25,5.70
2009,11,30,10,26,5.60
2009,11,30,10,27,5.70
2009,11,30,10,28,5.70
2009,11,30,10,29,5.60
2009,11,30,10,30,5.60
2009,11,30,10,31,5.60
2009,11,30,10,32,5.60
2009,11,30,10,33,5.60
2009,11,30,10,34,5.60
2009,11,30,10,35,5.60
2009,11,30,10,36,5.60
2009,11,30,10,37,5.60
2009,11,30,10,38,5.60
2009,11,30,10,39,5.60
2009,11,30,10,40,5.60
2009,11,30,10,41,5.60
2009,11,30,10,42,5.60
2009,11,30,10,43,5.60
2009,11,30,10,44,5.60
2009,11,30,10,45,5.60
2009,11,30,10,46,5.60
2009,11,30,10,47,5.60
2009,11,30,10,48,5.60
2009,11,30,10,49,5.60
2009,11,30,10,50,5.60
2009,11,30,10,51,5.60
2009,11,30,10,52,5.60
2009,11,30,10,53,5.60
2009,11,30,10,54,5.60
2009,11,30,10,55,5.60
2009,11,30,10,56,5.60
2009,11,30,10,57,5.60
2009,11,30,10,58,5.60
2009,11,30,10,59,5.60
2009,11,30,11,00,5.60
2009,11,30,11,01,5.60
2009,11,30,11,02,5.60
2009,11,30,11,03,5.60
2009,11,30,11,04,5.60
2009,11,30,11,05,5.60
2009,11,30,11,06,5.60
2009,11,30,11,07,5.60
2009,11,30,11,08,5.60
2009,11,30,11,09,5.60
2009,11,30,11,10,5.60
2009,11,30,11,11,5.60
2009,11,30,11,12,5.60
2009,11,30,11,13,5.60
2009,11,30,11,14,5.60
2009,11,30,11,15,5.60
2009,11,30,11,16,5.60
2009,11,30,11,17,5.60
2009,11,30,11,18,5.60
2009,11,30,11,19,5.70
2009,11,30,11,20,5.70
2009,11,30,11,21,5.70
2009,11,30,11,22,5.70
2009,11,30,11,23,5.80
2009,11,30,11,24,5.80
2009,11,30,11,25,5.80
2009,11,30,11,26,5.80
2009,11,30,11,27,5.90
2009,11,30,11,28,5.90
2009,11,30,11,29,5.90
2009,11,30,11,30,6.00
2009,11,30,11,31,6.00
2009,11,30,11,32,6.10
2009,11,30,11,33,6.10
2009,11,30,11,34,6.10
2009,11,30,11,35,6.10
2009,11,30,11,36,6.10
2009,11,30,11,37,6.10
2009,11,30,11,38,6.20
2009,11,30,11,39,6.20
2009,11,30,11,40,6.20
2009,11,30,11,41,6.10
2009,11,30,11,42,6.10
2009,11,30,11,43,6.10
2009,11,30,11,44,6.10
2009,11,30,11,45,6.10
2009,11,30,11,46,6.10
2009,11,30,11,47,6.10
2009,11,30,11,48,6.10
2009,11,30,11,49,6.10
2009,11,30,11,50,6.10
2009,11,30,11,51,6.10
2009,11,30,11,52,6.10
2009,11,30,11,53,6.10
2009,11,30,11,54,6.10
2009,11,30,11,55,6.10
2009,11,30,11,56,6.10
2009,11,30,11,57,6.10
2009,11,30,11,58,6.10
2009,11,30,11,59,6.10
2009,11,30,12,00,6.10
2009,11,30,12,01,6.10
2009,11,30,12,02,6.10
2009,11,30,12,03,6.10
2009,11,30,12,04,6.20
2009,11,30,12,05,6.20
2009,11,30,12,06,6.20
2009,11,30,12,07,6.20
2009,11,30,12,08,6.30
2009,11,30,12,09,6.30
2009,11,30,12,10,6.30
2009,11,30,12,11,6.30
2009,11,30,12,12,6.30
2009,11,30,12,13,6.30
2009,11,30,12,14,6.30
2009,11,30,12,15,6.30
2009,11,30,12,16,6.20
2009,11,30,12,17,6.20
2009,11,30,12,18,6.20
2009,11,30,12,19,6.20
2009,11,30,12,20,6.20
2009,11,30,12,21,6.10
2009,11,30,12,22,6.10
2009,11,30,12,23,6.10
2009,11,30,12,24,6.10
2009,11,30,12,25,6.10
2009,11,30,12,26,6.10
2009,11,30,12,27,6.10
2009,11,30,12,28,6.10
2009,11,30,12,29,6.10
2009,11,30,12,30,6.10
2009,11,30,12,31,6.10
2009,11,30,12,32,6.10
2009,11,30,12,33,6.10
2009,11,30,12,34,6.10
2009,11,30,12,35,6.10
2009,11,30,12,36,6.10
2009,11,30,12,37,6.20
2009,11,30,12,38,6.20
2009,11,30,12,39,6.30
2009,11,30,12,40,6.40
2009,11,30,12,41,6.40
2009,11,30,12,42,6.50
2009,11,30,12,43,6.60
2009,11,30,12,44,6.60
2009,11,30,12,45,6.60
2009,11,30,12,46,6.60
2009,11,30,12,47,6.60
2009,11,30,12,48,6.70
2009,11,30,12,49,6.70
2009,11,30,12,50,6.70
2009,11,30,12,51,6.60
2009,11,30,12,52,6.60
2009,11,30,12,53,6.50
2009,11,30,12,54,6.50
2009,11,30,12,55,6.50
2009,11,30,12,56,6.50
2009,11,30,12,57,6.50
2009,11,30,12,58,6.50
2009,11,30,12,59,6.50
2009,11,30,13,00,6.50
2009,11,30,13,01,6.40
2009,11,30,13,02,6.30
2009,11,30,13,03,6.30
2009,11,30,13,04,6.40
2009,11,30,13,05,6.40
2009,11,30,13,06,6.50
2009,11,30,13,07,6.60
2009,11,30,13,08,6.70
2009,11,30,13,09,6.70
2009,11,30,13,10,6.80
2009,11,30,13,11,6.80
2009,11,30,13,12,6.80
2009,11,30,13,13,6.90
2009,11,30,13,14,6.90
2009,11,30,13,15,6.90
2009,11,30,13,16,6.90
2009,11,30,13,17,7.00
2009,11,30,13,18,7.00
2009,11,30,13,19,7.10
2009,11,30,13,20,7.20
2009,11,30,13,21,7.20
2009,11,30,13,22,7.20
2009,11,30,13,23,7.20
2009,11,30,13,24,7.20
2009,11,30,13,25,7.20
2009,11,30,13,26,7.30
2009,11,30,13,27,7.40
2009,11,30,13,28,7.40
2009,11,30,13,29,7.50
2009,11,30,13,30,7.50
2009,11,30,13,31,7.50
2009,11,30,13,32,7.50
2009,11,30,13,33,7.50
2009,11,30,13,34,7.60
2009,11,30,13,35,7.60
2009,11,30,13,36,7.60
2009,11,30,13,37,7.60
2009,11,30,13,38,7.70
2009,11,30,13,39,7.60
2009,11,30,13,40,7.60
2009,11,30,13,41,7.60
2009,11,30,13,42,7.60
2009,11,30,13,43,7.60
2009,11,30,13,44,7.60
2009,11,30,13,45,7.50
2009,11,30,13,46,7.50
2009,11,30,13,47,7.40
2009,11,30,13,48,7.40
2009,11,30,13,49,7.30
2009,11,30,13,50,7.20
2009,11,30,13,51,7.20
2009,11,30,13,52,7.20
2009,11,30,13,53,7.20
2009,11,30,13,54,7.20
2009,11,30,13,55,7.30
2009,11,30,13,56,7.30
2009,11,30,13,57,7.30
2009,11,30,13,58,7.40
2009,11,30,13,59,7.50
2009,11,30,14,00,7.60
2009,11,30,14,01,7.50
2009,11,30,14,02,7.50
2009,11,30,14,03,7.60
2009,11,30,14,04,7.60
2009,11,30,14,05,7.60
2009,11,30,14,06,7.60
2009,11,30,14,07,7.50
2009,11,30,14,08,7.50
2009,11,30,14,09,7.40
2009,11,30,14,10,7.30
2009,11,30,14,11,7.20
2009,11,30,14,12,7.20
2009,11,30,14,13,7.10
2009,11,30,14,14,7.00
2009,11,30,14,15,7.00
2009,11,30,14,16,6.90
2009,11,30,14,17,6.90
2009,11,30,14,18,6.80
2009,11,30,14,19,6.80
2009,11,30,14,20,6.80
2009,11,30,14,21,6.70
2009,11,30,14,22,6.60
2009,11,30,14,23,6.50
2009,11,30,14,24,6.40
2009,11,30,14,25,6.40
2009,11,30,14,26,6.30
2009,11,30,14,27,6.20
2009,11,30,14,28,6.20
2009,11,30,14,29,6.20
2009,11,30,14,30,6.10
2009,11,30,14,31,6.20
2009,11,30,14,32,6.10
2009,11,30,14,33,6.10
2009,11,30,14,34,6.10
2009,11,30,14,35,6.10
2009,11,30,14,36,6.10
2009,11,30,14,37,6.10
2009,11,30,14,38,6.10
2009,11,30,14,39,6.00
2009,11,30,14,40,6.00
2009,11,30,14,41,6.00
2009,11,30,14,42,6.00
2009,11,30,14,43,5.90
2009,11,30,14,44,5.90
2009,11,30,14,45,5.90
2009,11,30,14,46,5.90
2009,11,30,14,47,5.90
2009,11,30,14,48,5.90
2009,11,30,14,49,5.90
2009,11,30,14,50,5.90
2009,11,30,14,51,5.90
2009,11,30,14,52,5.90
2009,11,30,14,53,5.90
2009,11,30,14,54,5.80
2009,11,30,14,55,5.80
2009,11,30,14,56,5.80
2009,11,30,14,57,5.80
2009,11,30,14,58,5.80
2009,11,30,14,59,5.80
2009,11,30,15,00,5.80
2009,11,30,15,01,5.80
2009,11,30,15,02,5.80
2009,11,30,15,03,5.80
2009,11,30,15,04,5.80
2009,11,30,15,05,5.70
2009,11,30,15,06,5.70
2009,11,30,15,07,5.70
2009,11,30,15,08,5.70
2009,11,30,15,09,5.70
2009,11,30,15,10,5.70
2009,11,30,15,11,5.70
2009,11,30,15,12,5.70
2009,11,30,15,13,5.70
2009,11,30,15,14,5.70
2009,11,30,15,15,5.70
2009,11,30,15,16,5.70
2009,11,30,15,17,5.70
2009,11,30,15,18,5.70
2009,11,30,15,19,5.70
2009,11,30,15,20,5.70
2009,11,30,15,21,5.70
2009,11,30,15,22,5.70
2009,11,30,15,23,5.70
2009,11,30,15,24,5.70
2009,11,30,15,25,5.70
2009,11,30,15,26,5.70
2009,11,30,15,27,5.70
2009,11,30,15,28,5.70
2009,11,30,15,29,5.70
2009,11,30,15,30,5.70
2009,11,30,15,31,5.70
2009,11,30,15,32,5.70
2009,11,30,15,33,5.70
2009,11,30,15,34,5.70
2009,11,30,15,35,5.60
2009,11,30,15,36,5.60
2009,11,30,15,37,5.60
2009,11,30,15,38,5.60
2009,11,30,15,39,5.50
2009,11,30,15,40,5.50
2009,11,30,15,41,5.40
2009,11,30,15,42,5.40
2009,11,30,15,43,5.40
2009,11,30,15,44,5.30
2009,11,30,15,45,5.30
2009,11,30,15,46,5.30
2009,11,30,15,47,5.20
2009,11,30,15,48,5.20
2009,11,30,15,49,5.30
2009,11,30,15,50,5.30
2009,11,30,15,51,5.30
2009,11,30,15,52,5.30
2009,11,30,15,53,5.30
2009,11,30,15,54,5.30
2009,11,30,15,55,5.30
2009,11,30,15,56,5.20
2009,11,30,15,57,5.20
2009,11,30,15,58,5.20
2009,11,30,15,59,5.10
2009,11,30,16,00,5.10
2009,11,30,16,01,5.10
2009,11,30,16,02,5.10
2009,11,30,16,03,5.10
2009,11,30,16,04,5.00
2009,11,30,16,05,5.00
2009,11,30,16,06,5.00
2009,11,30,16,07,5.00
2009,11,30,16,08,4.90
2009,11,30,16,09,4.90
2009,11,30,16,10,4.90
2009,11,30,16,11,4.90
2009,11,30,16,12,4.90
2009,11,30,16,13,4.80
2009,11,30,16,14,4.80
2009,11,30,16,15,4.80
2009,11,30,16,16,4.80
2009,11,30,16,17,4.70
2009,11,30,16,18,4.70
2009,11,30,16,19,4.70
2009,11,30,16,20,4.70
2009,11,30,16,21,4.60
2009,11,30,16,22,4.60
2009,11,30,16,23,4.60
2009,11,30,16,24,4.60
2009,11,30,16,25,4.50
2009,11,30,16,26,4.50
2009,11,30,16,27,4.50
2009,11,30,16,28,4.40
2009,11,30,16,29,4.40
2009,11,30,16,30,4.40
2009,11,30,16,31,4.40
2009,11,30,16,32,4.40
2009,11,30,16,33,4.40
2009,11,30,16,34,4.40
2009,11,30,16,35,4.40
2009,11,30,16,36,4.40
2009,11,30,16,37,4.30
2009,11,30,16,38,4.30
2009,11,30,16,39,4.30
2009,11,30,16,40,4.30
2009,11,30,16,41,4.20
2009,11,30,16,42,4.20
2009,11,30,16,43,4.20
2009,11,30,16,44,4.20
2009,11,30,16,45,4.10
2009,11,30,16,46,4.10
2009,11,30,16,47,4.10
2009,11,30,16,48,4.10
2009,11,30,16,49,4.10
2009,11,30,16,50,4.10
2009,11,30,16,51,4.10
2009,11,30,16,52,4.00
2009,11,30,16,53,4.00
2009,11,30,16,54,4.00
2009,11,30,16,55,4.00
2009,11,30,16,56,4.00
2009,11,30,16,57,4.00
2009,11,30,16,58,4.00
2009,11,30,16,59,4.00
2009,11,30,17,00,3.90
2009,11,30,17,01,3.90
2009,11,30,17,02,3.90
2009,11,30,17,03,3.90
2009,11,30,17,04,3.90
2009,11,30,17,05,3.80
2009,11,30,17,06,3.80
2009,11,30,17,07,3.80
2009,11,30,17,08,3.80
2009,11,30,17,09,3.80
2009,11,30,17,10,3.80
2009,11,30,17,11,3.80
2009,11,30,17,12,3.70
2009,11,30,17,13,3.70
2009,11,30,17,14,3.70
2009,11,30,17,15,3.70
2009,11,30,17,16,3.70
2009,11,30,17,17,3.60
2009,11,30,17,18,3.60
2009,11,30,17,19,3.60
2009,11,30,17,20,3.60
2009,11,30,17,21,3.50
2009,11,30,17,22,3.50
2009,11,30,17,23,3.50
2009,11,30,17,24,3.50
2009,11,30,17,25,3.50
2009,11,30,17,26,3.50
2009,11,30,17,27,3.50
2009,11,30,17,28,3.50
2009,11,30,17,29,3.50
2009,11,30,17,30,3.50
2009,11,30,17,31,3.50
2009,11,30,17,32,3.50
2009,11,30,17,33,3.50
2009,11,30,17,34,3.50
2009,11,30,17,35,3.50
2009,11,30,17,36,3.40
2009,11,30,17,37,3.40
2009,11,30,17,38,3.40
2009,11,30,17,39,3.40
2009,11,30,17,40,3.40
2009,11,30,17,41,3.40
2009,11,30,17,42,3.40
2009,11,30,17,43,3.40
2009,11,30,17,44,3.40
2009,11,30,17,45,3.40
2009,11,30,17,46,3.40
2009,11,30,17,47,3.40
2009,11,30,17,48,3.40
2009,11,30,17,49,3.40
2009,11,30,17,50,3.30
2009,11,30,17,51,3.30
2009,11,30,17,52,3.30